Location: Hartman Creek State Park
(44.3257°N, 89.2134°W)
Time: 02:31:28
(UTC-05:00)

Terra - Visible Passes

Search period start: 01 September 2014 00:00
Search period end: 11 September 2014 00:00
Orbit: 702 x 703 km, 98.2° (Epoch: 07 September)

Date Brightness Start Highest point End Pass type
(mag) Time Alt. Az. Time Alt. Az. Time Alt. Az.
01 Sep 4.0 21:10:05 10° ENE 21:10:32 10° ENE 21:11:13 10° NE visible
01 Sep 2.8 22:48:58 43° N 22:48:58 43° N 22:52:12 10° N visible
02 Sep 3.3 21:53:27 23° NE 21:53:27 23° NE 21:56:33 10° NNE visible
02 Sep 3.7 23:32:21 27° NW 23:32:21 27° NW 23:34:47 10° NNW visible
03 Sep 2.9 22:36:50 38° NNE 22:36:50 38° NNE 22:39:56 10° N visible
04 Sep 4.6 00:15:43 12° WNW 00:15:43 12° WNW 00:16:20 10° NW visible
04 Sep 3.6 21:41:19 19° NE 21:41:19 19° NE 21:43:59 10° NNE visible
04 Sep 3.6 23:20:13 29° NW 23:20:13 29° NW 23:22:41 10° NNW visible
05 Sep 3.1 22:24:42 33° NNE 22:24:42 33° NNE 22:27:37 10° N visible
06 Sep 4.5 00:03:35 14° NW 00:03:35 14° NW 00:04:39 10° NW visible
06 Sep 3.8 21:29:11 15° NE 21:29:11 15° NE 21:31:16 10° NNE visible
06 Sep 3.5 23:08:05 30° NNW 23:08:05 30° NNW 23:10:32 10° NNW visible
07 Sep 3.3 22:12:34 27° NNE 22:12:34 27° NNE 22:15:15 10° N visible
07 Sep 4.4 23:51:27 17° NW 23:51:27 17° NW 23:52:47 10° NW visible
08 Sep 4.0 21:17:03 12° NE 21:17:03 12° NE 21:18:14 10° NE visible
08 Sep 3.5 22:55:57 30° NNW 22:55:57 30° NNW 22:58:20 10° NNW visible
09 Sep 3.5 22:00:26 22° NE 22:00:26 22° NE 22:02:48 10° N visible
09 Sep 4.3 23:39:19 19° NW 23:39:19 19° NW 23:40:48 10° NNW visible
10 Sep 3.5 22:43:48 28° N 22:43:48 28° N 22:46:05 10° N visible
